Location: Lone Pine Community Mobile Home Park
(42.7367°N, 73.8567°W)
Time: 06:03:30
(UTC+00:00)

Cosmos 2058 Rocket - Pass Details

Date: 29 October 2020
Orbit: 610 x 639 km, 82.5° (Epoch: 27 November)

Event Time Altitude Azimuth Distance (km) Brightness Sun altitude
Rises 23:07:58 0° 199° (SSW) 2,915 6.9 -14.6°
Reaches altitude 10° 23:10:15 10° 205° (SSW) 2,016 6.1 -15.0°
Maximum altitude 23:14:36 51° 281° (W) 804 4.0 -15.8°
Drops below altitude 10° 23:19:02 10° 358° (N) 2,040 5.7 -16.6°
Sets 23:21:21 0° 4° (N) 2,954 6.5 -17.0°
